Time,TemperatureF,DewpointF,PressureIn,WindDirection,WindDirectionDegrees,WindSpeedMPH,WindSpeedGustMPH,Humidity,HourlyPrecipIn,Conditions,Clouds,dailyrainin,SolarRadiationWatts/m^2,SoftwareType,DateUTC
2013-03-11 00:02:00,28.8,24.0,29.89,North,349,4.0,16.0,82,0.00,,---,0.00,0.00,VWS V14.00,2013-03-11 05:02:00,
2013-03-11 00:07:00,28.7,23.9,29.89,North,351,8.0,16.0,82,0.00,,---,0.00,0.00,VWS V14.00,2013-03-11 05:07:00,
2013-03-11 00:12:00,28.7,23.9,29.89,North,350,7.0,16.0,82,0.00,,---,0.00,0.00,VWS V14.00,2013-03-11 05:12:00,
2013-03-11 00:17:00,28.6,23.8,29.89,North,349,3.0,16.0,82,0.00,,---,0.00,0.00,VWS V14.00,2013-03-11 05:17:00,
2013-03-11 00:22:00,28.6,23.8,29.89,NW,304,4.0,16.0,82,0.00,,---,0.00,0.00,VWS V14.00,2013-03-11 05:22:00,
2013-03-11 00:27:00,28.5,23.7,29.89,NW,319,9.0,9.0,82,0.00,,---,0.00,0.00,VWS V14.00,2013-03-11 05:27:00,
2013-03-11 00:32:00,28.5,23.7,29.89,NW,323,3.0,12.0,82,0.00,,---,0.00,0.00,VWS V14.00,2013-03-11 05:32:00,
2013-03-11 00:38:00,28.5,23.7,29.88,North,360,13.0,19.0,82,0.00,,---,0.00,0.00,VWS V14.00,2013-03-11 05:38:00,
2013-03-11 00:43:00,28.5,23.7,29.88,North,9,7.0,19.0,82,0.00,,---,0.00,0.00,VWS V14.00,2013-03-11 05:43:00,
2013-03-11 00:48:00,28.4,23.6,29.88,NW,321,3.0,19.0,82,0.00,,---,0.00,0.00,VWS V14.00,2013-03-11 05:48:00,
2013-03-11 00:53:00,28.4,23.6,29.88,North,360,9.0,19.0,82,0.00,,---,0.00,0.00,VWS V14.00,2013-03-11 05:53:00,
2013-03-11 00:58:00,28.3,23.5,29.88,North,5,9.0,12.0,82,0.00,,---,0.00,0.00,VWS V14.00,2013-03-11 05:58:00,
2013-03-11 01:03:00,28.3,23.5,29.88,NNW,342,5.0,13.0,82,0.00,,---,0.00,0.00,VWS V14.00,2013-03-11 06:03:00,
2013-03-11 01:08:00,28.3,23.5,29.88,NW,319,5.0,14.0,82,0.00,,---,0.00,0.00,VWS V14.00,2013-03-11 06:08:00,
2013-03-11 01:13:00,28.3,23.5,29.88,North,9,10.0,14.0,82,0.00,,---,0.00,0.00,VWS V14.00,2013-03-11 06:13:00,
2013-03-11 01:18:00,28.3,23.8,29.88,North,11,9.0,14.0,83,0.00,,---,0.00,0.00,VWS V14.00,2013-03-11 06:18:00,
2013-03-11 01:24:00,28.2,23.4,29.88,North,360,6.0,16.0,82,0.00,,---,0.00,0.00,VWS V14.00,2013-03-11 06:24:00,
2013-03-11 01:29:00,28.1,23.3,29.88,NNW,348,8.0,13.0,82,0.00,,---,0.00,0.00,VWS V14.00,2013-03-11 06:29:00,
2013-03-11 01:34:00,28.1,23.6,29.88,North,350,8.0,14.0,83,0.00,,---,0.00,0.00,VWS V14.00,2013-03-11 06:34:00,
2013-03-11 01:39:00,28.1,23.6,29.88,NNW,337,6.0,14.0,83,0.00,,---,0.00,0.00,VWS V14.00,2013-03-11 06:39:00,
2013-03-11 01:44:00,28.1,23.6,29.88,North,355,7.0,15.0,83,0.00,,---,0.00,0.00,VWS V14.00,2013-03-11 06:44:00,
2013-03-11 01:49:00,28.0,23.5,29.88,NNW,337,5.0,15.0,83,0.00,,---,0.00,0.00,VWS V14.00,2013-03-11 06:49:00,
2013-03-11 01:54:00,28.0,23.5,29.88,North,11,7.0,15.0,83,0.00,,---,0.00,0.00,VWS V14.00,2013-03-11 06:54:00,
2013-03-11 01:59:00,28.0,23.5,29.87,North,355,4.0,9.0,83,0.00,,---,0.00,0.00,VWS V14.00,2013-03-11 06:59:00,
2013-03-11 02:04:00,28.0,23.2,29.87,NNE,15,9.0,13.0,82,0.00,,---,0.00,0.00,VWS V14.00,2013-03-11 07:04:00,
2013-03-11 02:09:00,27.9,23.4,29.87,North,349,2.0,13.0,83,0.00,,---,0.00,0.00,VWS V14.00,2013-03-11 07:09:00,
2013-03-11 02:14:00,27.9,23.4,29.87,NW,319,5.0,13.0,83,0.00,,---,0.00,0.00,VWS V14.00,2013-03-11 07:14:00,
2013-03-11 02:19:00,27.8,23.0,29.87,NNW,336,9.0,13.0,82,0.00,,---,0.00,0.00,VWS V14.00,2013-03-11 07:19:00,
2013-03-11 02:24:00,27.7,23.2,29.87,NNW,336,13.0,15.0,83,0.00,,---,0.00,0.00,VWS V14.00,2013-03-11 07:24:00,
2013-03-11 02:29:00,27.6,23.1,29.87,NNW,348,5.0,8.0,83,0.00,,---,0.00,0.00,VWS V14.00,2013-03-11 07:29:00,
2013-03-11 02:35:00,27.6,22.8,29.87,NW,315,6.0,15.0,82,0.00,,---,0.00,0.00,VWS V14.00,2013-03-11 07:35:00,
2013-03-11 02:40:00,27.6,23.1,29.87,NNW,333,7.0,15.0,83,0.00,,---,0.00,0.00,VWS V14.00,2013-03-11 07:40:00,
2013-03-11 02:45:00,27.5,23.0,29.87,North,9,7.0,15.0,83,0.00,,---,0.00,0.00,VWS V14.00,2013-03-11 07:45:00,
2013-03-11 02:50:00,27.5,22.7,29.87,North,5,9.0,15.0,82,0.00,,---,0.00,0.00,VWS V14.00,2013-03-11 07:50:00,
2013-03-11 02:55:00,27.4,22.6,29.87,NNE,14,6.0,15.0,82,0.00,,---,0.00,0.00,VWS V14.00,2013-03-11 07:55:00,
2013-03-11 03:00:00,27.4,22.9,29.87,North,355,8.0,12.0,83,0.00,,---,0.00,0.00,VWS V14.00,2013-03-11 08:00:00,
2013-03-11 03:05:00,27.4,22.9,29.87,NNW,340,6.0,12.0,83,0.00,,---,0.00,0.00,VWS V14.00,2013-03-11 08:05:00,
2013-03-11 03:10:00,27.3,22.5,29.87,NW,324,5.0,12.0,82,0.00,,---,0.00,0.00,VWS V14.00,2013-03-11 08:10:00,
2013-03-11 03:15:00,27.3,22.5,29.87,North,355,2.0,12.0,82,0.00,,---,0.00,0.00,VWS V14.00,2013-03-11 08:15:00,
2013-03-11 03:20:00,27.3,22.8,29.86,NNE,19,9.0,14.0,83,0.00,,---,0.00,0.00,VWS V14.00,2013-03-11 08:20:00,
2013-03-11 03:25:00,27.3,22.8,29.86,NW,322,9.0,17.0,83,0.00,,---,0.00,0.00,VWS V14.00,2013-03-11 08:25:00,
2013-03-11 03:30:00,27.2,22.7,29.86,North,5,8.0,17.0,83,0.00,,---,0.00,0.00,VWS V14.00,2013-03-11 08:30:00,
2013-03-11 03:35:00,27.2,22.4,29.86,NNW,342,3.0,17.0,82,0.00,,---,0.00,0.00,VWS V14.00,2013-03-11 08:35:00,
2013-03-11 03:40:00,27.2,22.4,29.86,NNW,344,6.0,17.0,82,0.00,,---,0.00,0.00,VWS V14.00,2013-03-11 08:40:00,
2013-03-11 03:46:00,27.2,22.7,29.86,NNW,335,4.0,17.0,83,0.00,,---,0.00,0.00,VWS V14.00,2013-03-11 08:46:00,
2013-03-11 03:51:00,27.2,22.4,29.85,North,349,4.0,17.0,82,0.00,,---,0.00,0.00,VWS V14.00,2013-03-11 08:51:00,
2013-03-11 03:56:00,27.1,22.6,29.85,North,355,8.0,17.0,83,0.00,,---,0.00,0.00,VWS V14.00,2013-03-11 08:56:00,
2013-03-11 04:01:00,27.1,22.6,29.85,North,355,6.0,14.0,83,0.00,,---,0.00,0.00,VWS V14.00,2013-03-11 09:01:00,
2013-03-11 04:06:00,27.0,22.5,29.85,NNW,334,6.0,14.0,83,0.00,,---,0.00,0.00,VWS V14.00,2013-03-11 09:06:00,
2013-03-11 04:11:00,27.0,22.5,29.85,NW,321,4.0,14.0,83,0.00,,---,0.00,0.00,VWS V14.00,2013-03-11 09:11:00,
2013-03-11 04:16:00,27.0,22.5,29.84,North,9,3.0,15.0,83,0.00,,---,0.00,0.00,VWS V14.00,2013-03-11 09:16:00,
2013-03-11 04:21:00,27.0,22.5,29.84,North,349,7.0,16.0,83,0.00,,---,0.00,0.00,VWS V14.00,2013-03-11 09:21:00,
2013-03-11 04:27:00,26.9,22.4,29.84,North,355,4.0,18.0,83,0.00,,---,0.00,0.00,VWS V14.00,2013-03-11 09:27:00,
2013-03-11 04:32:00,26.9,22.4,29.84,NNW,348,14.0,16.0,83,0.00,,---,0.00,0.00,VWS V14.00,2013-03-11 09:32:00,
2013-03-11 04:37:00,26.8,22.3,29.84,NW,324,11.0,16.0,83,0.00,,---,0.00,0.00,VWS V14.00,2013-03-11 09:37:00,
2013-03-11 04:42:00,26.8,22.3,29.83,NW,316,4.0,16.0,83,0.00,,---,0.00,0.00,VWS V14.00,2013-03-11 09:42:00,
2013-03-11 04:47:00,26.7,22.2,29.83,North,350,10.0,16.0,83,0.00,,---,0.00,0.00,VWS V14.00,2013-03-11 09:47:00,
2013-03-11 04:52:00,26.7,22.2,29.83,NNW,347,7.0,16.0,83,0.00,,---,0.00,0.00,VWS V14.00,2013-03-11 09:52:00,
2013-03-11 04:57:00,26.7,22.5,29.83,North,351,10.0,16.0,84,0.00,,---,0.00,0.00,VWS V14.00,2013-03-11 09:57:00,
2013-03-11 05:02:00,26.6,22.1,29.83,NNW,342,10.0,15.0,83,0.00,,---,0.00,0.00,VWS V14.00,2013-03-11 10:02:00,
2013-03-11 05:07:00,26.5,22.0,29.83,NNW,335,7.0,15.0,83,0.00,,---,0.00,0.00,VWS V14.00,2013-03-11 10:07:00,
2013-03-11 05:13:00,26.5,22.0,29.83,North,355,6.0,15.0,83,0.00,,---,0.00,0.00,VWS V14.00,2013-03-11 10:13:00,
2013-03-11 05:18:00,26.4,22.2,29.83,WNW,300,3.0,15.0,84,0.00,,---,0.00,0.00,VWS V14.00,2013-03-11 10:18:00,
2013-03-11 05:23:00,26.4,22.2,29.83,NW,317,3.0,18.0,84,0.00,,---,0.00,0.00,VWS V14.00,2013-03-11 10:23:00,
2013-03-11 05:28:00,26.3,22.1,29.83,NW,321,5.0,6.0,84,0.00,,---,0.00,0.00,VWS V14.00,2013-03-11 10:28:00,
2013-03-11 05:33:00,26.3,22.1,29.83,North,355,10.0,12.0,84,0.00,,---,0.00,0.00,VWS V14.00,2013-03-11 10:33:00,
2013-03-11 05:38:00,26.3,22.1,29.83,North,5,14.0,14.0,84,0.00,,---,0.00,0.00,VWS V14.00,2013-03-11 10:38:00,
2013-03-11 05:43:00,26.2,22.0,29.82,NW,315,5.0,15.0,84,0.00,,---,0.00,0.00,VWS V14.00,2013-03-11 10:43:00,
2013-03-11 05:48:00,26.2,21.8,29.83,NE,34,8.0,16.0,83,0.00,,---,0.00,0.00,VWS V14.00,2013-03-11 10:48:00,
2013-03-11 05:53:00,26.2,22.0,29.83,NNW,343,5.0,16.0,84,0.00,,---,0.00,0.00,VWS V14.00,2013-03-11 10:53:00,
2013-03-11 05:58:00,26.2,22.0,29.82,NNE,24,3.0,7.0,84,0.00,,---,0.00,0.00,VWS V14.00,2013-03-11 10:58:00,
2013-03-11 06:03:00,26.2,22.0,29.82,North,355,5.0,12.0,84,0.00,,---,0.00,0.00,VWS V14.00,2013-03-11 11:03:00,
2013-03-11 06:09:00,26.2,22.0,29.82,NNE,15,9.0,14.0,84,0.00,,---,0.00,0.00,VWS V14.00,2013-03-11 11:09:00,
2013-03-11 06:14:00,26.2,22.0,29.82,NNW,335,4.0,14.0,84,0.00,,---,0.00,0.00,VWS V14.00,2013-03-11 11:14:00,
2013-03-11 06:19:00,26.1,21.9,29.83,NW,323,4.0,15.0,84,0.00,,---,0.00,0.00,VWS V14.00,2013-03-11 11:19:00,
2013-03-11 06:24:00,26.0,21.8,29.83,North,349,13.0,15.0,84,0.00,,---,0.00,0.00,VWS V14.00,2013-03-11 11:24:00,
2013-03-11 06:29:00,25.9,21.7,29.83,NNW,334,3.0,11.0,84,0.00,,---,0.00,0.00,VWS V14.00,2013-03-11 11:29:00,
2013-03-11 06:34:00,25.8,21.6,29.83,NNW,333,2.0,11.0,84,0.00,,---,0.00,0.00,VWS V14.00,2013-03-11 11:34:00,
2013-03-11 06:39:00,25.8,21.6,29.82,North,349,3.0,12.0,84,0.00,,---,0.00,0.00,VWS V14.00,2013-03-11 11:39:00,
2013-03-11 06:44:00,25.8,21.6,29.82,NNE,15,11.0,14.0,84,0.00,,---,0.00,0.00,VWS V14.00,2013-03-11 11:44:00,
2013-03-11 06:49:00,25.7,21.5,29.83,North,11,3.0,14.0,84,0.00,,---,0.00,0.00,VWS V14.00,2013-03-11 11:49:00,
2013-03-11 06:54:00,25.7,21.5,29.82,NNW,327,3.0,14.0,84,0.00,,---,0.00,0.00,VWS V14.00,2013-03-11 11:54:00,
2013-03-11 06:59:00,25.7,21.5,29.82,North,10,3.0,7.0,84,0.00,,---,0.00,0.00,VWS V14.00,2013-03-11 11:59:00,
2013-03-11 07:04:00,25.7,21.5,29.82,NW,319,6.0,10.0,84,0.00,,---,0.00,0.00,VWS V14.00,2013-03-11 12:04:00,
2013-03-11 07:09:00,25.7,21.5,29.82,NNW,338,12.0,13.0,84,0.00,,---,0.00,0.00,VWS V14.00,2013-03-11 12:09:00,
2013-03-11 07:14:00,25.8,21.6,29.82,North,355,6.0,13.0,84,0.00,,---,0.00,0.00,VWS V14.00,2013-03-11 12:14:00,
2013-03-11 07:19:00,25.7,21.5,29.82,North,350,11.0,13.0,84,0.00,,---,0.00,0.00,VWS V14.00,2013-03-11 12:19:00,
2013-03-11 07:24:00,25.7,21.5,29.83,NNW,336,5.0,13.0,84,0.00,,---,0.00,0.00,VWS V14.00,2013-03-11 12:24:00,
2013-03-11 07:29:00,25.7,21.5,29.83,North,360,6.0,11.0,84,0.00,,---,0.00,0.00,VWS V14.00,2013-03-11 12:29:00,
2013-03-11 07:35:00,25.7,21.5,29.83,NW,321,5.0,11.0,84,0.00,,---,0.00,0.00,VWS V14.00,2013-03-11 12:35:00,
2013-03-11 07:40:00,25.7,21.5,29.83,NW,315,6.0,11.0,84,0.00,,---,0.00,0.00,VWS V14.00,2013-03-11 12:40:00,
2013-03-11 07:45:00,25.7,21.5,29.83,North,350,2.0,12.0,84,0.00,,---,0.00,5.00,VWS V14.00,2013-03-11 12:45:00,
2013-03-11 07:50:00,25.7,21.5,29.83,NW,306,5.0,12.0,84,0.00,,---,0.00,9.00,VWS V14.00,2013-03-11 12:50:00,
2013-03-11 07:55:00,25.8,21.6,29.83,NNW,336,5.0,12.0,84,0.00,,---,0.00,11.00,VWS V14.00,2013-03-11 12:55:00,
2013-03-11 08:00:00,25.8,21.6,29.83,NNE,24,1.0,8.0,84,0.00,,---,0.00,12.00,VWS V14.00,2013-03-11 13:00:00,
2013-03-11 08:05:00,25.7,21.5,29.83,NW,319,4.0,11.0,84,0.00,,---,0.00,18.00,VWS V14.00,2013-03-11 13:05:00,
2013-03-11 08:10:00,25.7,21.3,29.83,NNW,338,3.0,11.0,83,0.00,,---,0.00,18.00,VWS V14.00,2013-03-11 13:10:00,
2013-03-11 08:15:00,25.7,21.5,29.83,NW,317,3.0,12.0,84,0.00,,---,0.00,18.00,VWS V14.00,2013-03-11 13:15:00,
2013-03-11 08:20:00,25.7,21.5,29.83,NNW,329,4.0,14.0,84,0.00,,---,0.00,23.00,VWS V14.00,2013-03-11 13:20:00,
2013-03-11 08:25:00,25.7,21.3,29.83,NW,310,5.0,14.0,83,0.00,,---,0.00,33.00,VWS V14.00,2013-03-11 13:25:00,
2013-03-11 08:30:00,25.7,21.5,29.83,NW,312,4.0,11.0,84,0.00,,---,0.00,44.00,VWS V14.00,2013-03-11 13:30:00,
2013-03-11 08:35:00,25.8,21.6,29.84,NW,318,3.0,11.0,84,0.00,,---,0.00,46.00,VWS V14.00,2013-03-11 13:35:00,
2013-03-11 08:40:00,25.7,21.5,29.83,WNW,298,4.0,11.0,84,0.00,,---,0.00,44.00,VWS V14.00,2013-03-11 13:40:00,
2013-03-11 08:45:00,25.6,21.5,29.84,NW,315,11.0,12.0,84,0.00,,---,0.00,47.00,VWS V14.00,2013-03-11 13:45:00,
2013-03-11 08:50:00,25.4,21.2,29.83,WNW,298,8.0,12.0,84,0.00,,---,0.00,44.00,VWS V14.00,2013-03-11 13:50:00,
2013-03-11 08:55:00,25.3,21.1,29.83,NW,304,6.0,12.0,84,0.00,,---,0.00,40.00,VWS V14.00,2013-03-11 13:55:00,
2013-03-11 09:00:00,25.2,21.0,29.83,North,355,5.0,11.0,84,0.00,,---,0.00,46.00,VWS V14.00,2013-03-11 14:00:00,
2013-03-11 09:05:00,25.2,21.0,29.84,NW,313,3.0,11.0,84,0.00,,---,0.00,44.00,VWS V14.00,2013-03-11 14:05:00,
2013-03-11 09:10:00,25.1,21.0,29.83,NNW,331,9.0,13.0,84,0.00,,---,0.00,53.00,VWS V14.00,2013-03-11 14:10:00,
2013-03-11 09:15:00,25.1,21.0,29.84,NW,320,5.0,14.0,84,0.00,,---,0.00,65.00,VWS V14.00,2013-03-11 14:15:00,
2013-03-11 09:20:00,25.1,21.0,29.83,North,351,4.0,15.0,84,0.00,,---,0.00,77.00,VWS V14.00,2013-03-11 14:20:00,
2013-03-11 09:25:00,25.1,21.0,29.84,NNW,333,4.0,15.0,84,0.00,,---,0.00,88.00,VWS V14.00,2013-03-11 14:25:00,
2013-03-11 09:31:00,25.2,21.0,29.84,WNW,293,9.0,15.0,84,0.00,,---,0.00,83.00,VWS V14.00,2013-03-11 14:31:00,
2013-03-11 09:36:00,25.2,21.0,29.84,NNW,339,6.0,15.0,84,0.00,,---,0.00,90.00,VWS V14.00,2013-03-11 14:36:00,
2013-03-11 09:41:00,25.3,21.1,29.84,NNW,331,9.0,15.0,84,0.00,,---,0.00,102.00,VWS V14.00,2013-03-11 14:41:00,
2013-03-11 09:46:00,25.4,21.2,29.84,NW,325,4.0,15.0,84,0.00,,---,0.00,109.00,VWS V14.00,2013-03-11 14:46:00,
2013-03-11 09:51:00,25.4,21.0,29.84,NW,304,4.0,15.0,83,0.00,,---,0.00,114.00,VWS V14.00,2013-03-11 14:51:00,
2013-03-11 09:56:00,25.4,21.2,29.84,NNW,338,5.0,15.0,84,0.00,,---,0.00,125.00,VWS V14.00,2013-03-11 14:56:00,
2013-03-11 10:01:00,25.5,21.4,29.84,NW,325,9.0,15.0,84,0.00,,---,0.00,142.00,VWS V14.00,2013-03-11 15:01:00,
2013-03-11 10:06:00,25.5,21.4,29.84,North,349,10.0,15.0,84,0.00,,---,0.00,158.00,VWS V14.00,2013-03-11 15:06:00,
2013-03-11 10:12:00,25.7,21.5,29.84,North,360,4.0,15.0,84,0.00,,---,0.00,167.00,VWS V14.00,2013-03-11 15:12:00,
2013-03-11 10:17:00,25.8,21.6,29.84,NNE,15,6.0,15.0,84,0.00,,---,0.00,176.00,VWS V14.00,2013-03-11 15:17:00,
2013-03-11 10:22:00,25.9,21.5,29.84,NW,310,4.0,15.0,83,0.00,,---,0.00,172.00,VWS V14.00,2013-03-11 15:22:00,
2013-03-11 10:27:00,26.1,21.9,29.83,NW,311,4.0,15.0,84,0.00,,---,0.00,178.00,VWS V14.00,2013-03-11 15:27:00,
2013-03-11 10:32:00,26.0,21.6,29.83,NW,325,4.0,12.0,83,0.00,,---,0.00,183.00,VWS V14.00,2013-03-11 15:32:00,
2013-03-11 10:37:00,26.1,21.6,29.83,WNW,294,3.0,12.0,83,0.00,,---,0.00,186.00,VWS V14.00,2013-03-11 15:37:00,
2013-03-11 10:42:00,26.2,21.8,29.83,NW,315,6.0,12.0,83,0.00,,---,0.00,188.00,VWS V14.00,2013-03-11 15:42:00,
2013-03-11 10:47:00,26.2,21.8,29.83,NNW,329,3.0,15.0,83,0.00,,---,0.00,197.00,VWS V14.00,2013-03-11 15:47:00,
2013-03-11 10:53:00,26.2,21.8,29.83,NNW,332,6.0,15.0,83,0.00,,---,0.00,204.00,VWS V14.00,2013-03-11 15:53:00,
2013-03-11 10:58:00,26.3,21.9,29.83,NW,326,8.0,11.0,83,0.00,,---,0.00,221.00,VWS V14.00,2013-03-11 15:58:00,
2013-03-11 11:03:00,26.5,22.0,29.83,WNW,292,7.0,13.0,83,0.00,,---,0.00,265.00,VWS V14.00,2013-03-11 16:03:00,
2013-03-11 11:08:00,26.6,22.1,29.83,NNW,342,14.0,14.0,83,0.00,,---,0.00,272.00,VWS V14.00,2013-03-11 16:08:00,
2013-03-11 11:13:00,26.6,22.1,29.83,NNW,337,6.0,15.0,83,0.00,,---,0.00,297.00,VWS V14.00,2013-03-11 16:13:00,
2013-03-11 11:18:00,26.7,22.2,29.83,NNE,15,5.0,16.0,83,0.00,,---,0.00,267.00,VWS V14.00,2013-03-11 16:18:00,
2013-03-11 11:23:00,26.8,22.3,29.83,NNW,348,5.0,16.0,83,0.00,,---,0.00,251.00,VWS V14.00,2013-03-11 16:23:00,
2013-03-11 11:28:00,26.9,22.4,29.83,NNW,338,5.0,9.0,83,0.00,,---,0.00,267.00,VWS V14.00,2013-03-11 16:28:00,
2013-03-11 11:33:00,26.8,22.3,29.83,North,355,7.0,12.0,83,0.00,,---,0.00,264.00,VWS V14.00,2013-03-11 16:33:00,
2013-03-11 11:38:00,26.9,22.4,29.83,North,360,2.0,12.0,83,0.00,,---,0.00,236.00,VWS V14.00,2013-03-11 16:38:00,
2013-03-11 11:43:00,27.0,22.2,29.83,WNW,291,7.0,12.0,82,0.00,,---,0.00,234.00,VWS V14.00,2013-03-11 16:43:00,
2013-03-11 11:48:00,26.9,22.1,29.82,NW,321,9.0,12.0,82,0.00,,---,0.00,269.00,VWS V14.00,2013-03-11 16:48:00,
2013-03-11 11:54:00,27.0,22.2,29.82,NW,316,5.0,12.0,82,0.00,,---,0.00,287.00,VWS V14.00,2013-03-11 16:54:00,
2013-03-11 11:59:00,27.1,22.4,29.82,NNW,336,4.0,14.0,82,0.00,,---,0.00,283.00,VWS V14.00,2013-03-11 16:59:00,
2013-03-11 12:04:00,27.1,22.4,29.82,NNW,328,3.0,14.0,82,0.00,,---,0.00,264.00,VWS V14.00,2013-03-11 17:04:00,
2013-03-11 12:09:00,27.1,22.4,29.82,North,5,3.0,14.0,82,0.00,,---,0.00,250.00,VWS V14.00,2013-03-11 17:09:00,
2013-03-11 12:14:00,27.2,22.4,29.82,North,355,4.0,14.0,82,0.00,,---,0.00,253.00,VWS V14.00,2013-03-11 17:14:00,
2013-03-11 12:19:00,27.2,22.4,29.82,NW,321,5.0,14.0,82,0.00,,---,0.00,278.00,VWS V14.00,2013-03-11 17:19:00,
2013-03-11 12:24:00,27.1,22.4,29.81,North,350,3.0,14.0,82,0.00,,---,0.00,283.00,VWS V14.00,2013-03-11 17:24:00,
2013-03-11 12:29:00,27.1,22.4,29.81,North,5,6.0,11.0,82,0.00,,---,0.00,287.00,VWS V14.00,2013-03-11 17:29:00,
2013-03-11 12:34:00,27.3,22.8,29.81,NNW,344,4.0,11.0,83,0.00,,---,0.00,279.00,VWS V14.00,2013-03-11 17:34:00,
2013-03-11 12:39:00,27.4,22.6,29.81,NNW,338,7.0,12.0,82,0.00,,---,0.00,230.00,VWS V14.00,2013-03-11 17:39:00,
2013-03-11 12:44:00,27.2,22.7,29.81,NNW,345,3.0,12.0,83,0.00,,---,0.00,229.00,VWS V14.00,2013-03-11 17:44:00,
2013-03-11 12:49:00,27.2,22.7,29.81,NNW,346,4.0,12.0,83,0.00,,---,0.00,225.00,VWS V14.00,2013-03-11 17:49:00,
2013-03-11 12:54:00,27.3,22.8,29.81,WNW,284,5.0,12.0,83,0.00,,---,0.00,213.00,VWS V14.00,2013-03-11 17:54:00,
2013-03-11 12:59:00,27.4,22.6,29.81,NW,315,4.0,11.0,82,0.00,,---,0.00,227.00,VWS V14.00,2013-03-11 17:59:00,
2013-03-11 13:04:00,27.3,22.8,29.81,NW,324,5.0,12.0,83,0.00,,---,0.00,207.00,VWS V14.00,2013-03-11 18:04:00,
2013-03-11 13:09:00,27.3,22.5,29.80,WNW,292,7.0,12.0,82,0.00,,---,0.00,243.00,VWS V14.00,2013-03-11 18:09:00,
2013-03-11 13:14:00,27.4,22.9,29.80,NW,317,5.0,13.0,83,0.00,,---,0.00,320.00,VWS V14.00,2013-03-11 18:14:00,
2013-03-11 13:19:00,27.5,22.7,29.80,NNW,329,11.0,14.0,82,0.00,,---,0.00,274.00,VWS V14.00,2013-03-11 18:19:00,
2013-03-11 13:25:00,27.6,22.8,29.80,NW,314,7.0,16.0,82,0.00,,---,0.00,269.00,VWS V14.00,2013-03-11 18:25:00,
2013-03-11 13:30:00,27.6,22.8,29.80,NNW,339,4.0,13.0,82,0.00,,---,0.00,276.00,VWS V14.00,2013-03-11 18:30:00,
2013-03-11 13:35:00,27.7,22.9,29.80,WNW,300,4.0,13.0,82,0.00,,---,0.00,244.00,VWS V14.00,2013-03-11 18:35:00,
2013-03-11 13:40:00,27.7,22.6,29.80,NW,317,4.0,13.0,81,0.00,,---,0.00,213.00,VWS V14.00,2013-03-11 18:40:00,
2013-03-11 13:45:00,27.7,22.6,29.80,NW,307,7.0,13.0,81,0.00,,---,0.00,220.00,VWS V14.00,2013-03-11 18:45:00,
2013-03-11 13:50:00,27.6,22.8,29.80,NW,320,2.0,13.0,82,0.00,,---,0.00,185.00,VWS V14.00,2013-03-11 18:50:00,
2013-03-11 13:55:00,27.7,22.9,29.79,West,272,5.0,13.0,82,0.00,,---,0.00,195.00,VWS V14.00,2013-03-11 18:55:00,
2013-03-11 14:00:00,27.7,22.9,29.79,NW,321,5.0,10.0,82,0.00,,---,0.00,186.00,VWS V14.00,2013-03-11 19:00:00,
2013-03-11 14:05:00,27.8,23.3,29.79,NNW,329,5.0,10.0,83,0.00,,---,0.00,185.00,VWS V14.00,2013-03-11 19:05:00,
2013-03-11 14:10:00,27.8,23.0,29.79,NW,307,3.0,13.0,82,0.00,,---,0.00,211.00,VWS V14.00,2013-03-11 19:10:00,
2013-03-11 14:15:00,27.9,22.8,29.79,NW,304,9.0,13.0,81,0.00,,---,0.00,255.00,VWS V14.00,2013-03-11 19:15:00,
2013-03-11 14:20:00,27.9,22.8,29.79,North,349,3.0,14.0,81,0.00,,---,0.00,264.00,VWS V14.00,2013-03-11 19:20:00,
2013-03-11 14:25:00,28.0,22.9,29.79,NNW,328,5.0,14.0,81,0.00,,---,0.00,227.00,VWS V14.00,2013-03-11 19:25:00,
2013-03-11 14:31:00,28.2,23.1,29.79,NW,304,5.0,9.0,81,0.00,,---,0.00,229.00,VWS V14.00,2013-03-11 19:31:00,
2013-03-11 14:36:00,28.1,22.7,29.79,NW,311,7.0,13.0,80,0.00,,---,0.00,223.00,VWS V14.00,2013-03-11 19:36:00,
2013-03-11 14:41:00,28.0,22.6,29.79,North,355,4.0,13.0,80,0.00,,---,0.00,200.00,VWS V14.00,2013-03-11 19:41:00,
2013-03-11 14:46:00,28.1,22.7,29.79,NW,309,7.0,13.0,80,0.00,,---,0.00,179.00,VWS V14.00,2013-03-11 19:46:00,
2013-03-11 14:51:00,28.0,22.6,29.79,NNW,339,6.0,13.0,80,0.00,,---,0.00,236.00,VWS V14.00,2013-03-11 19:51:00,
2013-03-11 14:56:00,28.0,22.9,29.79,NNW,329,6.0,14.0,81,0.00,,---,0.00,274.00,VWS V14.00,2013-03-11 19:56:00,
2013-03-11 15:01:00,28.1,22.7,29.79,NW,317,2.0,8.0,80,0.00,,---,0.00,272.00,VWS V14.00,2013-03-11 20:01:00,
2013-03-11 15:06:00,28.4,22.7,29.79,NW,323,6.0,10.0,79,0.00,,---,0.00,316.00,VWS V14.00,2013-03-11 20:06:00,
2013-03-11 15:11:00,28.6,22.6,29.79,NNW,348,4.0,12.0,78,0.00,,---,0.00,345.00,VWS V14.00,2013-03-11 20:11:00,
2013-03-11 15:16:00,28.8,22.2,29.79,WNW,293,8.0,14.0,76,0.00,,---,0.00,306.00,VWS V14.00,2013-03-11 20:16:00,
2013-03-11 15:21:00,28.8,22.2,29.79,NW,305,8.0,14.0,76,0.00,,---,0.00,290.00,VWS V14.00,2013-03-11 20:21:00,
2013-03-11 15:27:00,28.9,22.3,29.79,NNW,347,7.0,14.0,76,0.00,,---,0.00,285.00,VWS V14.00,2013-03-11 20:27:00,
2013-03-11 15:32:00,29.1,22.2,29.79,NW,306,1.0,7.0,75,0.00,,---,0.00,257.00,VWS V14.00,2013-03-11 20:32:00,
2013-03-11 15:37:00,29.4,22.5,29.79,NW,312,4.0,7.0,75,0.00,,---,0.00,243.00,VWS V14.00,2013-03-11 20:37:00,
2013-03-11 15:42:00,29.4,22.5,29.79,NW,311,4.0,8.0,75,0.00,,---,0.00,250.00,VWS V14.00,2013-03-11 20:42:00,
2013-03-11 15:47:00,29.3,21.4,29.79,NW,315,11.0,11.0,72,0.00,,---,0.00,179.00,VWS V14.00,2013-03-11 20:47:00,
2013-03-11 15:52:00,29.2,21.3,29.79,NW,311,6.0,11.0,72,0.00,,---,0.00,132.00,VWS V14.00,2013-03-11 20:52:00,
2013-03-11 15:57:00,29.0,21.1,29.80,NNW,341,10.0,11.0,72,0.00,,---,0.00,132.00,VWS V14.00,2013-03-11 20:57:00,
2013-03-11 16:02:00,29.1,20.9,29.80,NNW,331,3.0,9.0,71,0.00,,---,0.00,123.00,VWS V14.00,2013-03-11 21:02:00,
2013-03-11 16:07:00,29.2,21.0,29.80,North,5,2.0,11.0,71,0.00,,---,0.00,156.00,VWS V14.00,2013-03-11 21:07:00,
2013-03-11 16:12:00,29.3,21.1,29.80,North,351,4.0,11.0,71,0.00,,---,0.00,179.00,VWS V14.00,2013-03-11 21:12:00,
2013-03-11 16:17:00,29.4,21.2,29.80,NW,311,2.0,11.0,71,0.00,,---,0.00,214.00,VWS V14.00,2013-03-11 21:17:00,
2013-03-11 16:22:00,29.5,21.3,29.80,NW,311,5.0,11.0,71,0.00,,---,0.00,162.00,VWS V14.00,2013-03-11 21:22:00,
2013-03-11 16:27:00,29.5,21.3,29.80,NW,311,5.0,11.0,71,0.00,,---,0.00,171.00,VWS V14.00,2013-03-11 21:27:00,
2013-03-11 16:32:00,29.5,21.3,29.80,NW,322,4.0,10.0,71,0.00,,---,0.00,158.00,VWS V14.00,2013-03-11 21:32:00,
2013-03-11 16:37:00,29.6,21.4,29.80,NNW,337,2.0,10.0,71,0.00,,---,0.00,132.00,VWS V14.00,2013-03-11 21:37:00,
2013-03-11 16:43:00,29.7,20.8,29.80,NNW,331,3.0,10.0,69,0.00,,---,0.00,185.00,VWS V14.00,2013-03-11 21:43:00,
2013-03-11 16:48:00,29.8,20.9,29.80,North,355,4.0,11.0,69,0.00,,---,0.00,206.00,VWS V14.00,2013-03-11 21:48:00,
2013-03-11 16:53:00,29.8,21.2,29.80,WNW,287,9.0,11.0,70,0.00,,---,0.00,162.00,VWS V14.00,2013-03-11 21:53:00,
2013-03-11 16:58:00,29.7,21.5,29.80,NW,315,6.0,6.0,71,0.00,,---,0.00,121.00,VWS V14.00,2013-03-11 21:58:00,
2013-03-11 17:03:00,29.7,21.5,29.80,NW,307,5.0,9.0,71,0.00,,---,0.00,132.00,VWS V14.00,2013-03-11 22:03:00,
2013-03-11 17:08:00,29.7,21.5,29.80,WNW,284,1.0,9.0,71,0.00,,---,0.00,107.00,VWS V14.00,2013-03-11 22:08:00,
2013-03-11 17:13:00,29.7,21.5,29.80,NW,312,5.0,9.0,71,0.00,,---,0.00,102.00,VWS V14.00,2013-03-11 22:13:00,
2013-03-11 17:18:00,29.4,21.2,29.80,NW,325,7.0,12.0,71,0.00,,---,0.00,98.00,VWS V14.00,2013-03-11 22:18:00,
2013-03-11 17:23:00,29.3,21.4,29.80,NW,309,5.0,12.0,72,0.00,,---,0.00,102.00,VWS V14.00,2013-03-11 22:23:00,
2013-03-11 17:28:00,29.2,21.3,29.81,NW,309,1.0,4.0,72,0.00,,---,0.00,121.00,VWS V14.00,2013-03-11 22:28:00,
2013-03-11 17:33:00,29.2,21.3,29.81,North,355,4.0,10.0,72,0.00,,---,0.00,171.00,VWS V14.00,2013-03-11 22:33:00,
2013-03-11 17:38:00,29.3,21.4,29.81,NW,312,1.0,10.0,72,0.00,,---,0.00,149.00,VWS V14.00,2013-03-11 22:38:00,
2013-03-11 17:44:00,29.2,21.3,29.81,NW,304,10.0,11.0,72,0.00,,---,0.00,135.00,VWS V14.00,2013-03-11 22:44:00,
2013-03-11 17:49:00,29.0,21.4,29.81,NW,305,4.0,11.0,73,0.00,,---,0.00,130.00,VWS V14.00,2013-03-11 22:49:00,
2013-03-11 17:54:00,29.0,21.4,29.81,NW,309,4.0,11.0,73,0.00,,---,0.00,111.00,VWS V14.00,2013-03-11 22:54:00,
2013-03-11 17:59:00,29.0,21.1,29.81,NW,306,3.0,5.0,72,0.00,,---,0.00,91.00,VWS V14.00,2013-03-11 22:59:00,
2013-03-11 18:04:00,29.0,21.1,29.81,NW,318,3.0,9.0,72,0.00,,---,0.00,81.00,VWS V14.00,2013-03-11 23:04:00,
2013-03-11 18:09:00,28.9,21.0,29.82,NNW,331,3.0,9.0,72,0.00,,---,0.00,69.00,VWS V14.00,2013-03-11 23:09:00,
2013-03-11 18:14:00,28.8,20.6,29.82,NW,318,2.0,10.0,71,0.00,,---,0.00,62.00,VWS V14.00,2013-03-11 23:14:00,
2013-03-11 18:19:00,28.6,20.7,29.82,NW,321,4.0,10.0,72,0.00,,---,0.00,49.00,VWS V14.00,2013-03-11 23:19:00,
2013-03-11 18:24:00,28.5,21.0,29.82,NW,313,2.0,10.0,73,0.00,,---,0.00,44.00,VWS V14.00,2013-03-11 23:24:00,
2013-03-11 18:29:00,28.4,20.9,29.82,NNW,330,3.0,7.0,73,0.00,,---,0.00,40.00,VWS V14.00,2013-03-11 23:29:00,
2013-03-11 18:34:00,28.1,20.9,29.82,NNW,338,5.0,7.0,74,0.00,,---,0.00,35.00,VWS V14.00,2013-03-11 23:34:00,
2013-03-11 18:39:00,27.9,20.7,29.82,NW,315,2.0,13.0,74,0.00,,---,0.00,32.00,VWS V14.00,2013-03-11 23:39:00,
2013-03-11 18:44:00,27.8,20.6,29.82,WNW,300,2.0,13.0,74,0.00,,---,0.00,25.00,VWS V14.00,2013-03-11 23:44:00,
2013-03-11 18:49:00,27.6,20.4,29.82,NW,311,5.0,13.0,74,0.00,,---,0.00,18.00,VWS V14.00,2013-03-11 23:49:00,
2013-03-11 18:54:00,27.5,20.3,29.82,WSW,245,0.0,13.0,74,0.00,,---,0.00,14.00,VWS V14.00,2013-03-11 23:54:00,
2013-03-11 18:59:00,27.4,20.5,29.82,NW,318,5.0,5.0,75,0.00,,---,0.00,12.00,VWS V14.00,2013-03-11 23:59:00,
2013-03-11 19:05:00,27.3,20.4,29.82,NW,306,0.0,9.0,75,0.00,,---,0.00,12.00,VWS V14.00,2013-03-12 00:05:00,
2013-03-11 19:10:00,27.2,20.3,29.82,WNW,300,5.0,10.0,75,0.00,,---,0.00,12.00,VWS V14.00,2013-03-12 00:10:00,
2013-03-11 19:15:00,27.1,20.2,29.83,NW,318,4.0,10.0,75,0.00,,---,0.00,9.00,VWS V14.00,2013-03-12 00:15:00,
2013-03-11 19:20:00,27.0,19.8,29.83,NNW,331,3.0,10.0,74,0.00,,---,0.00,5.00,VWS V14.00,2013-03-12 00:20:00,
2013-03-11 19:25:00,27.0,20.1,29.83,NNW,327,5.0,10.0,75,0.00,,---,0.00,0.00,VWS V14.00,2013-03-12 00:25:00,
2013-03-11 19:30:00,26.9,20.0,29.83,NW,315,0.0,5.0,75,0.00,,---,0.00,0.00,VWS V14.00,2013-03-12 00:30:00,
2013-03-11 19:35:00,26.7,19.9,29.84,West,273,2.0,5.0,75,0.00,,---,0.00,0.00,VWS V14.00,2013-03-12 00:35:00,
2013-03-11 19:40:00,26.6,19.8,29.83,NW,315,1.0,5.0,75,0.00,,---,0.00,0.00,VWS V14.00,2013-03-12 00:40:00,
2013-03-11 19:45:00,26.5,19.7,29.84,NNW,331,4.0,7.0,75,0.00,,---,0.00,0.00,VWS V14.00,2013-03-12 00:45:00,
2013-03-11 19:50:00,26.3,19.5,29.84,WNW,303,4.0,9.0,75,0.00,,---,0.00,0.00,VWS V14.00,2013-03-12 00:50:00,
2013-03-11 19:55:00,26.2,19.7,29.84,NW,304,2.0,9.0,76,0.00,,---,0.00,0.00,VWS V14.00,2013-03-12 00:55:00,
2013-03-11 20:01:00,26.1,19.6,29.84,NW,321,0.0,4.0,76,0.00,,---,0.00,0.00,VWS V14.00,2013-03-12 01:01:00,
2013-03-11 20:06:00,26.0,19.5,29.84,NNW,342,3.0,6.0,76,0.00,,---,0.00,0.00,VWS V14.00,2013-03-12 01:06:00,
2013-03-11 20:11:00,25.8,19.3,29.84,WNW,295,4.0,6.0,76,0.00,,---,0.00,0.00,VWS V14.00,2013-03-12 01:11:00,
2013-03-11 20:16:00,25.6,19.4,29.84,NW,314,2.0,6.0,77,0.00,,---,0.00,0.00,VWS V14.00,2013-03-12 01:16:00,
2013-03-11 20:21:00,25.4,18.9,29.85,NW,314,2.0,10.0,76,0.00,,---,0.00,0.00,VWS V14.00,2013-03-12 01:21:00,
2013-03-11 20:26:00,25.1,18.6,29.85,NW,313,4.0,10.0,76,0.00,,---,0.00,0.00,VWS V14.00,2013-03-12 01:26:00,
2013-03-11 20:31:00,24.9,18.4,29.85,NW,308,3.0,9.0,76,0.00,,---,0.00,0.00,VWS V14.00,2013-03-12 01:31:00,
2013-03-11 20:36:00,24.8,18.3,29.85,NW,310,4.0,9.0,76,0.00,,---,0.00,0.00,VWS V14.00,2013-03-12 01:36:00,
2013-03-11 20:41:00,24.6,18.4,29.85,NW,318,0.0,9.0,77,0.00,,---,0.00,0.00,VWS V14.00,2013-03-12 01:41:00,
2013-03-11 20:47:00,24.5,18.3,29.85,WNW,284,3.0,9.0,77,0.00,,---,0.00,0.00,VWS V14.00,2013-03-12 01:47:00,
2013-03-11 20:52:00,24.4,18.2,29.85,NW,312,4.0,9.0,77,0.00,,---,0.00,0.00,VWS V14.00,2013-03-12 01:52:00,
2013-03-11 20:57:00,24.3,18.4,29.86,NW,315,1.0,9.0,78,0.00,,---,0.00,0.00,VWS V14.00,2013-03-12 01:57:00,
2013-03-11 21:02:00,24.2,18.3,29.85,NW,310,1.0,4.0,78,0.00,,---,0.00,0.00,VWS V14.00,2013-03-12 02:02:00,
2013-03-11 21:07:00,24.1,18.2,29.86,NNW,331,0.0,4.0,78,0.00,,---,0.00,0.00,VWS V14.00,2013-03-12 02:07:00,
2013-03-11 21:12:00,23.9,18.4,29.86,NNW,331,0.0,4.0,79,0.00,,---,0.00,0.00,VWS V14.00,2013-03-12 02:12:00,
2013-03-11 21:17:00,23.8,18.2,29.86,NW,316,4.0,4.0,79,0.00,,---,0.00,0.00,VWS V14.00,2013-03-12 02:17:00,
2013-03-11 21:22:00,23.5,18.0,29.86,NW,320,2.0,4.0,79,0.00,,---,0.00,0.00,VWS V14.00,2013-03-12 02:22:00,
2013-03-11 21:27:00,23.4,18.1,29.87,WNW,282,1.0,6.0,80,0.00,,---,0.00,0.00,VWS V14.00,2013-03-12 02:27:00,
2013-03-11 21:32:00,23.2,18.0,29.87,NNW,348,3.0,6.0,80,0.00,,---,0.00,0.00,VWS V14.00,2013-03-12 02:32:00,
2013-03-11 21:37:00,23.1,17.9,29.87,WNW,302,2.0,6.0,80,0.00,,---,0.00,0.00,VWS V14.00,2013-03-12 02:37:00,
2013-03-11 21:42:00,22.9,18.0,29.87,NW,304,2.0,6.0,81,0.00,,---,0.00,0.00,VWS V14.00,2013-03-12 02:42:00,
2013-03-11 21:47:00,22.9,18.0,29.87,NW,321,3.0,6.0,81,0.00,,---,0.00,0.00,VWS V14.00,2013-03-12 02:47:00,
2013-03-11 21:52:00,22.8,17.9,29.87,NW,315,1.0,7.0,81,0.00,,---,0.00,0.00,VWS V14.00,2013-03-12 02:52:00,
2013-03-11 21:57:00,22.8,17.9,29.87,West,261,2.0,7.0,81,0.00,,---,0.00,0.00,VWS V14.00,2013-03-12 02:57:00,
2013-03-11 22:03:00,22.7,17.8,29.87,WNW,299,0.0,4.0,81,0.00,,---,0.00,0.00,VWS V14.00,2013-03-12 03:03:00,
2013-03-11 22:08:00,22.7,17.8,29.87,WNW,302,5.0,7.0,81,0.00,,---,0.00,0.00,VWS V14.00,2013-03-12 03:08:00,
2013-03-11 22:13:00,22.6,17.7,29.87,WNW,289,4.0,7.0,81,0.00,,---,0.00,0.00,VWS V14.00,2013-03-12 03:13:00,
2013-03-11 22:18:00,22.7,17.8,29.88,NW,315,0.0,7.0,81,0.00,,---,0.00,0.00,VWS V14.00,2013-03-12 03:18:00,
2013-03-11 22:23:00,22.6,17.7,29.87,NNW,333,4.0,7.0,81,0.00,,---,0.00,0.00,VWS V14.00,2013-03-12 03:23:00,
2013-03-11 22:28:00,22.6,17.7,29.87,NW,313,1.0,4.0,81,0.00,,---,0.00,0.00,VWS V14.00,2013-03-12 03:28:00,
2013-03-11 22:33:00,22.7,17.8,29.87,NW,315,2.0,5.0,81,0.00,,---,0.00,0.00,VWS V14.00,2013-03-12 03:33:00,
2013-03-11 22:38:00,22.7,17.8,29.87,NW,309,3.0,5.0,81,0.00,,---,0.00,0.00,VWS V14.00,2013-03-12 03:38:00,
2013-03-11 22:43:00,22.7,17.8,29.87,NW,315,4.0,6.0,81,0.00,,---,0.00,0.00,VWS V14.00,2013-03-12 03:43:00,
2013-03-11 22:48:00,22.7,17.5,29.88,WNW,298,1.0,6.0,80,0.00,,---,0.00,0.00,VWS V14.00,2013-03-12 03:48:00,
2013-03-11 22:53:00,22.7,17.5,29.88,NW,311,0.0,6.0,80,0.00,,---,0.00,0.00,VWS V14.00,2013-03-12 03:53:00,
2013-03-11 22:58:00,22.6,17.4,29.88,NW,309,1.0,1.0,80,0.00,,---,0.00,0.00,VWS V14.00,2013-03-12 03:58:00,
2013-03-11 23:00:00,22.6,17.7,29.88,NW,309,0.0,1.0,81,0.00,,---,0.00,0.00,VWS V14.00,2013-03-12 04:00:00,
2013-03-11 23:05:00,22.5,17.3,29.88,WNW,298,0.0,3.0,80,0.00,,---,0.00,0.00,VWS V14.00,2013-03-12 04:05:00,
2013-03-11 23:10:00,22.4,16.9,29.88,NW,311,3.0,11.0,79,0.00,,---,0.00,0.00,VWS V14.00,2013-03-12 04:10:00,
2013-03-11 23:15:00,22.2,16.7,29.88,NW,315,1.0,11.0,79,0.00,,---,0.00,0.00,VWS V14.00,2013-03-12 04:15:00,
2013-03-11 23:20:00,22.0,16.5,29.88,NW,317,0.0,11.0,79,0.00,,---,0.00,0.00,VWS V14.00,2013-03-12 04:20:00,
2013-03-11 23:25:00,21.8,16.3,29.88,NW,304,4.0,11.0,79,0.00,,---,0.00,0.00,VWS V14.00,2013-03-12 04:25:00,
2013-03-11 23:30:00,21.6,16.1,29.88,WNW,298,0.0,2.0,79,0.00,,---,0.00,0.00,VWS V14.00,2013-03-12 04:30:00,
2013-03-11 23:35:00,21.4,15.9,29.89,WNW,298,1.0,2.0,79,0.00,,---,0.00,0.00,VWS V14.00,2013-03-12 04:35:00,
2013-03-11 23:41:00,21.2,15.7,29.89,WNW,296,0.0,2.0,79,0.00,,---,0.00,0.00,VWS V14.00,2013-03-12 04:41:00,
2013-03-11 23:46:00,21.0,15.5,29.88,WNW,296,1.0,3.0,79,0.00,,---,0.00,0.00,VWS V14.00,2013-03-12 04:46:00,
2013-03-11 23:51:00,20.9,15.4,29.88,WNW,296,0.0,3.0,79,0.00,,---,0.00,0.00,VWS V14.00,2013-03-12 04:51:00,
2013-03-11 23:56:00,20.7,15.2,29.89,WNW,294,0.0,3.0,79,0.00,,---,0.00,0.00,VWS V14.00,2013-03-12 04:56:00,